Waarnemingen

Advertentie
Mijn weer
Civitavecchia, Italië (16214): temperatuur & dauwpunt: 12.02.2019 02:00:00 - 18.02.2019 02:00:00 (CET)Civitavecchia, Italië (16214): windsnelheid: 12.02.2019 02:00:00 - 18.02.2019 02:00:00 (CET)Civitavecchia, Italië (16214): windrichting: 12.02.2019 02:00:00 - 18.02.2019 02:00:00 (CET)Civitavecchia, Italië (16214): luchtdruk: 12.02.2019 02:00:00 - 18.02.2019 02:00:00 (CET)Civitavecchia, Italië (16214): zicht: 12.02.2019 02:00:00 - 18.02.2019 02:00:00 (CET)Civitavecchia, Italië (16214): Zonneschijnduur: 12.02.2019 02:00:00 - 18.02.2019 02:00:00 (CET)
Datum & Tijd tt [°C] td [°C] ff [km/u] ff [kn] dd ppp [hPa] vv [km] sd [min]
18.02.2019 02:00:00 - - - - - - - -
18.02.2019 01:00:00 9,4 7,6 5 3 O 1028,1 - 0
18.02.2019 00:00:00 - - - - - - - -
17.02.2019 23:00:00 - - - - - - - -
17.02.2019 22:00:00 10,9 8,7 9 5 N 1028,3 - 0
17.02.2019 21:00:00 - - - - - - - -
17.02.2019 20:00:00 - - - - - - - -
17.02.2019 19:00:00 11,4 7,8 11 6 N 1028,0 - 0
17.02.2019 18:00:00 - - - - - - - -
17.02.2019 17:00:00 - - - - - - - -
17.02.2019 16:00:00 13,0 7,6 16 9 WNW 1027,9 - 60
17.02.2019 15:00:00 - - - - - - - -
17.02.2019 14:00:00 - - - - - - - -
17.02.2019 13:00:00 12,6 8,0 5 3 WZW 1029,4 - 60
17.02.2019 12:00:00 - - - - - - - -
17.02.2019 11:00:00 - - - - - - - -
17.02.2019 10:00:00 11,4 6,7 5 3 Z 1030,5 - 60
17.02.2019 09:00:00 - - - - - - - -
17.02.2019 08:00:00 - - - - - - - -
17.02.2019 07:00:00 9,5 5,2 4 2 N 1029,8 - 0
17.02.2019 06:00:00 - - - - - - - -
17.02.2019 05:00:00 - - - - - - - -
17.02.2019 04:00:00 9,1 2,5 8 4 OZO 1029,7 - 0
17.02.2019 03:00:00 - - - - - - - -
17.02.2019 02:00:00 - - - - - - - -
17.02.2019 01:00:00 9,0 4,0 2 1 ONO 1030,3 - 0
17.02.2019 00:00:00 - - - - - - - -
16.02.2019 23:00:00 - - - - - - - -
16.02.2019 22:00:00 10,8 4,5 9 5 NNO 1030,4 - 0
16.02.2019 21:00:00 - - - - - - - -
16.02.2019 20:00:00 - - - - - - - -
16.02.2019 19:00:00 10,7 2,8 9 5 N 1029,8 20 0
16.02.2019 18:00:00 - - - - - - - -
16.02.2019 17:00:00 - - - - - - - -
16.02.2019 16:00:00 12,4 6,3 11 6 W 1029,6 20 60
16.02.2019 15:00:00 - - - - - - - -
16.02.2019 14:00:00 - - - - - - - -
16.02.2019 13:00:00 13,1 5,8 5 3 WZW 1030,7 20 60
16.02.2019 12:00:00 - - - - - - - -
16.02.2019 11:00:00 - - - - - - - -
16.02.2019 10:00:00 12,0 4,1 5 3 Z 1030,9 20 60
16.02.2019 09:00:00 - - - - - - - -
16.02.2019 08:00:00 - - - - - - - -
16.02.2019 07:00:00 10,2 -0,4 2 1 N 1029,5 20 0
16.02.2019 06:00:00 - - - - - - - -
16.02.2019 05:00:00 - - - - - - - -
16.02.2019 04:00:00 9,9 0,2 5 3 N 1028,9 - 0
16.02.2019 03:00:00 - - - - - - - -
16.02.2019 02:00:00 - - - - - - - -
16.02.2019 01:00:00 12,0 -2,6 9 5 ONO 1028,5 - 0
16.02.2019 00:00:00 - - - - - - - -
15.02.2019 23:00:00 - - - - - - - -
15.02.2019 22:00:00 12,9 -2,3 18 10 NO 1027,3 - 0
15.02.2019 21:00:00 - - - - - - - -
15.02.2019 20:00:00 - - - - - - - -
15.02.2019 19:00:00 14,7 -1,8 22 12 N 1026,5 20 0
15.02.2019 18:00:00 - - - - - - - -
15.02.2019 17:00:00 - - - - - - - -
15.02.2019 16:00:00 18,8 -0,5 28 15 N 1025,3 50 60
15.02.2019 15:00:00 - - - - - - - -
15.02.2019 14:00:00 - - - - - - - -
15.02.2019 13:00:00 17,9 0,7 31 17 NNW 1026,5 50 60
15.02.2019 12:00:00 - - - - - - - -
15.02.2019 11:00:00 - - - - - - - -
15.02.2019 10:00:00 14,2 1,4 9 5 WNW 1028,4 20 60
15.02.2019 09:00:00 - - - - - - - -
15.02.2019 08:00:00 - - - - - - - -
15.02.2019 07:00:00 11,7 -3,3 5 3 NNO 1028,3 18 0
15.02.2019 06:00:00 - - - - - - - -
15.02.2019 05:00:00 - - - - - - - -
15.02.2019 04:00:00 12,1 -1,9 8 4 W 1028,7 - 0
15.02.2019 03:00:00 - - - - - - - -
15.02.2019 02:00:00 - - - - - - - -
15.02.2019 01:00:00 10,7 2,4 4 2 NNW 1029,6 - 0
15.02.2019 00:00:00 - - - - - - - -
14.02.2019 23:00:00 - - - - - - - -
14.02.2019 22:00:00 11,9 5,5 18 10 NNW 1029,7 - 0
14.02.2019 21:00:00 - - - - - - - -
14.02.2019 20:00:00 - - - - - - - -
14.02.2019 19:00:00 12,5 5,8 15 8 N 1030,3 20 0
14.02.2019 18:00:00 - - - - - - - -
14.02.2019 17:00:00 - - - - - - - -
14.02.2019 16:00:00 14,2 8,0 24 13 NW 1030,5 20 60
14.02.2019 15:00:00 - - - - - - - -
14.02.2019 14:00:00 - - - - - - - -
14.02.2019 13:00:00 14,3 6,6 18 10 NW 1031,7 20 60
14.02.2019 12:00:00 - - - - - - - -
14.02.2019 11:00:00 - - - - - - - -
14.02.2019 10:00:00 12,3 2,9 9 5 WNW 1033,2 20 60
14.02.2019 09:00:00 - - - - - - - -
14.02.2019 08:00:00 - - - - - - - -
14.02.2019 07:00:00 12,2 0,7 11 6 W 1032,4 25 0
14.02.2019 06:00:00 - - - - - - - -
14.02.2019 05:00:00 - - - - - - - -
14.02.2019 04:00:00 10,4 -2,6 13 7 NNW 1032,3 - 0
14.02.2019 03:00:00 - - - - - - - -
14.02.2019 02:00:00 - - - - - - - -
14.02.2019 01:00:00 9,5 -3,8 18 10 NNO 1032,6 - 0
14.02.2019 00:00:00 - - - - - - - -
13.02.2019 23:00:00 - - - - - - - -
13.02.2019 22:00:00 9,7 -3,8 28 15 N 1032,3 - 0
13.02.2019 21:00:00 - - - - - - - -
13.02.2019 20:00:00 - - - - - - - -
13.02.2019 19:00:00 11,4 -3,9 29 16 N 1032,3 40 0
13.02.2019 18:00:00 - - - - - - - -
13.02.2019 17:00:00 - - - - - - - -
13.02.2019 16:00:00 13,8 -4,2 22 12 N 1031,6 40 60
13.02.2019 15:00:00 - - - - - - - -
13.02.2019 14:00:00 - - - - - - - -
13.02.2019 13:00:00 13,6 -5,7 15 8 N 1032,2 40 60
13.02.2019 12:00:00 - - - - - - - -
13.02.2019 11:00:00 - - - - - - - -
13.02.2019 10:00:00 11,1 -2,8 8 4 WNW 1033,0 40 60
13.02.2019 09:00:00 - - - - - - - -
13.02.2019 08:00:00 - - - - - - - -
13.02.2019 07:00:00 9,1 -9,3 5 3 NNO 1031,3 30 0
13.02.2019 06:00:00 - - - - - - - -
13.02.2019 05:00:00 - - - - - - - -
13.02.2019 04:00:00 9,2 -8,6 9 5 ONO 1029,8 - 0
13.02.2019 03:00:00 - - - - - - - -
13.02.2019 02:00:00 - - - - - - - -
13.02.2019 01:00:00 8,2 -6,3 4 2 NNO 1029,0 - 0
13.02.2019 00:00:00 - - - - - - - -
12.02.2019 23:00:00 - - - - - - - -
12.02.2019 22:00:00 10,1 -1,7 9 5 N 1027,4 - 0
12.02.2019 21:00:00 - - - - - - - -
12.02.2019 20:00:00 - - - - - - - -
12.02.2019 19:00:00 11,3 -0,1 11 6 NNO 1025,6 40 0
12.02.2019 18:00:00 - - - - - - - -
12.02.2019 17:00:00 - - - - - - - -
12.02.2019 16:00:00 14,2 0,2 22 12 NW 1024,1 60 60
12.02.2019 15:00:00 - - - - - - - -
12.02.2019 14:00:00 - - - - - - - -
12.02.2019 13:00:00 13,0 0,2 26 14 NW 1023,8 60 60
12.02.2019 12:00:00 - - - - - - - -
12.02.2019 11:00:00 - - - - - - - -
12.02.2019 10:00:00 11,4 -4,8 21 11 NNW 1024,2 50 60
12.02.2019 09:00:00 - - - - - - - -
12.02.2019 08:00:00 - - - - - - - -
12.02.2019 07:00:00 9,2 -7,1 126 68 WNW 1021,6 20 0
12.02.2019 06:00:00 - - - - - - - -
12.02.2019 05:00:00 - - - - - - - -
12.02.2019 04:00:00 - - - - - - - -
12.02.2019 03:00:00 - - - - - - - -
12.02.2019 02:00:00 - - - - - - - -

tt = temperatuur
td = dauwpunt
ff = windsnelheid
dd = windrichting
ppp = luchtdruk
vv = zicht
sd = Zonneschijnduur

Weerstations in de omgeving